Location: Borderline Observatory
(42.7345°N, 72.8696°W)
Time: 09:50:33
(UTC-05:00)

Daily predictions for brighter satellites

Satellite Brightness Start Highest point End
(mag) Time Altitude Azimuth Time Altitude Azimuth Time Altitude Azimuth
Meteor 2-1 Rocket 4.3 17:13:03 10° N 17:18:51 81° E 17:24:43 10° SSE
NOSS 3-3 (A) 4.2 17:13:11 10° SSW 17:18:59 52° ESE 17:25:20 10° NE
NOSS 3-3 (C) 4.3 17:13:18 10° SSW 17:19:06 52° ESE 17:25:26 10° NE
IRAS Rocket 4.2 17:13:57 10° SSE 17:19:25 73° ENE 17:25:00 10° NNW
NOSS 7 (D) 4.3 17:16:21 10° SW 17:19:50 88° SE 17:23:04 10° NE
Meteor 1-24 Rocket 4.1 17:15:01 10° SSW 17:20:40 73° WNW 17:26:33 10° N
Cosmos 1674 2.7 17:20:06 10° S 17:23:49 62° E 17:27:32 10° NNE
Meteor 2-10 4.5 17:19:33 10° N 17:24:11 36° ENE 17:28:50 10° SE
SeaSat 1 4.2 17:23:16 10° S 17:27:49 38° WSW 17:32:26 10° NW
Cosmos 2369 Rocket 2.2 17:26:52 10° NNW 17:32:31 66° ENE 17:38:10 10° SE
SL-14 R/B 4.4 17:29:40 10° SE 17:32:58 25° E 17:36:14 10° NE
Cosmos 1354 Rocket 4.0 17:29:17 10° NNW 17:34:36 81° ENE 17:39:56 10° SSE
Cosmos 1484 Rocket 4.2 17:36:16 10° S 17:39:54 42° W 17:43:31 10° NNW
Cosmos 1295 Rocket 4.4 17:33:53 10° N 17:39:58 66° E 17:46:03 10° SSE
USA 161 4.3 17:39:24 10° NW 17:40:02 11° WNW 17:40:38 10° W
SPOT 3 Rocket 4.0 17:36:04 10° SE 17:40:48 39° ENE 17:45:34 10° N
Cosmos 2221 2.6 17:36:33 10° N 17:40:51 55° E 17:45:09 10° SSE
CORIOLIS 4.4 17:36:23 10° S 17:41:42 73° WSW 17:47:04 10° NNW
Ariane Rocket 3.6 17:39:02 10° S 17:44:01 62° WSW 17:49:05 10° NNW
Cosmos 1300 3.3 17:42:14 10° N 17:45:47 35° ENE 17:49:18 10° SE
Lacrosse 4 Rocket 3.9 17:43:57 10° WNW 17:46:06 14° NW 17:48:14 10° NNW
Cosmos 1315 Rocket 3.9 17:44:59 10° SE 17:48:10 24° E 17:50:18 15° NE
COSMO-SKYMED 1 2.6 17:44:15 10° NNE 17:48:33 58° E 17:52:49 10° S
Cosmos 1626 3.7 17:48:31 10° SE 17:50:40 17° E 17:50:40 17° E
IRS-1A Rocket 4.3 17:46:36 10° SSE 17:52:08 87° WSW 17:57:46 10° NNW
CZ-4 R/B 4.4 17:49:57 10° SSE 17:54:04 86° W 17:58:13 10° NNW
Cosmos 1656 Rocket 4.4 17:49:47 10° N 17:54:32 29° NE 17:59:18 10° ESE
GEOS 3 Rocket 4.1 17:49:39 10° ESE 17:54:34 40° NE 17:59:34 10° NNW
Meteor 2-14 Rocket 4.4 17:49:19 10° N 17:55:29 83° E 18:01:34 10° S
Cosmos 1943 Rocket 2.1 17:49:57 10° NNW 17:55:33 67° ENE 18:01:04 10° SE
Cosmos 2366 rocket 4.2 17:49:36 10° N 17:55:36 46° ENE 18:01:31 10° SSE
CZ-2C R/B 3.9 17:51:03 10° NNE 17:55:49 81° WNW 18:00:28 10° SSW
BREEZE-M R/B 4.0 17:55:23 10° WSW 17:59:38 88° SSE 18:11:43 16° ENE
Tiangong 1 0.3 17:59:12 10° W 18:01:41 87° S 18:02:22 42° E
ERS-2 2.3 18:02:00 10° SE 18:05:32 46° ENE 18:09:05 10° N
Meteor 1-21 Rocket 4.4 18:00:09 10° S 18:06:01 84° W 18:12:00 10° N
Cosmos 2341 Rocket 4.3 18:02:09 10° NNW 18:08:23 71° W 18:14:37 10° S
Meteor 2-2 Rocket 4.4 18:04:06 10° N 18:09:41 48° ENE 18:15:08 10° SSE
NOAA 12 4.0 18:06:55 10° SSE 18:12:08 80° ENE 18:17:24 10° NNW
Cosmos 44 Rocket 4.5 18:10:48 10° SSE 18:14:21 22° ESE 18:14:21 22° ESE
MOS 1 4.4 18:10:45 10° SSE 18:16:24 82° WSW 18:22:05 10° NNW
Cosmos 1076 Rocket 3.5 18:12:31 10° S 18:16:53 90° WNW 18:21:17 10° N
Cosmos 2098 Rocket 4.1 18:12:42 10° NNE 18:17:09 35° E 18:22:35 10° SE
FENGYUN 3A 3.7 18:13:12 10° SSE 18:18:34 83° WSW 18:23:57 10° NNW
Cosmos 1400 Rocket 3.3 18:17:03 10° SSW 18:21:02 63° WNW 18:25:07 10° N
Cosmos 1328 3.8 18:17:20 10° S 18:21:16 59° E 18:23:46 21° NNE
H-2A R/B 2.8 18:19:09 10° SSE 18:22:49 53° ENE 18:26:34 10° N
Okean 3 Rocket 3.9 18:19:53 10° SSW 18:24:24 72° W 18:28:57 10° N
Cosmos 1766 Rocket 3.4 18:25:41 10° S 18:29:58 70° E 18:32:59 19° NNE
OAO 3 Rocket 4.4 18:26:30 10° SW 18:30:39 31° S 18:32:27 24° SE
Cosmos 864 Rocket 4.4 18:27:27 10° N 18:33:50 85° E 18:40:09 10° S
BREEZE-M R/B 4.0 18:32:45 10° W 18:34:10 24° NW 18:34:10 24° NW
Cosmos 1943 4.1 18:31:29 10° SW 18:36:54 46° WNW 18:42:19 10° NNE
Cosmos 968 Rocket 4.0 18:32:58 10° NNW 18:38:04 61° WSW 18:43:06 10° S
SL-24 R/B - RUBIN 2 3.6 18:33:42 10° NNW 18:38:11 51° NE 18:38:20 51° ENE
ATLAS 2AS CENTAUR R/B 3.8 18:32:14 10° NW 18:39:47 51° WSW 18:46:43 10° S
ALOS 3.7 18:41:41 10° SSW 18:46:02 39° W 18:50:26 10° NNW
EO 1 Del DPAF 4.3 18:43:37 12° N 18:46:54 45° WNW 18:50:33 10° SW
NOSS 3-4 (A) 3.7 18:55:25 10° NW 19:02:28 78° NE 19:05:59 35° SE
NOSS 3-4 (C) 3.7 18:55:31 10° NW 19:02:34 77° NE 19:05:59 36° SE
Thor Agena Rocket 3.4 19:02:12 65° ENE 19:02:48 73° ESE 19:08:01 10° S
Cosmos 909 Rocket 4.2 19:03:27 10° NNW 19:10:14 55° NE 19:10:14 55° NE
Cosmos 1626 4.1 19:22:44 10° SW 19:25:21 28° W 19:25:21 28° W
USA 215 4.4 19:46:54 31° N 19:46:54 31° N 19:51:22 10° NW
COSMOS 2406 4.5 19:50:36 10° SSW 19:53:49 35° SW 19:53:49 35° SW
